Location: Finkenwalde
(53.3770°N, 14.6418°E)
Time: 04:08:36
(UTC+00:00)

SL-16 R/B - Pass Details

Date: 05 February 2023
Orbit: 842 x 846 km, 71.0° (Epoch: 24 March)

Event Time Altitude Azimuth Distance (km) Brightness Sun altitude
Rises 18:03:42 0° 232° (SW) 3,394 6.2 -19.8°
Reaches altitude 10° 18:06:14 10° 238° (WSW) 2,463 5.4 -20.2°
Maximum altitude 18:11:40 47° 312° (NW) 1,118 3.1 -21.0°
Enters shadow 18:16:57 11° 25° (NNE) 2,409 4.3 -21.8°
